Regional Weather Roundup
Issued by NWS New Orleans/Baton Rouge, LA

Home | Current Version | Previous Version | Text Only | Print | Product List | Glossary On
Versions: 1 2 3 4 5 6 7 8 9 10 11 12 13 14 15 16 17 18 19 20 21 22 23 24 25 26 27 28 29 30 31 32 33 34 35 36 37 38 39 40 41 42 43 44 45 46 47 48 49 50
422
ASUS44 KLIX 291710
RWRLIX
NEW ORLEANS REGIONAL WEATHER ROUNDUP
NATIONAL WEATHER SERVICE NEW ORLEANS LA
1200 PM CDT MON SEP 29 2014

NOTE: "FAIR" INDICATES FEW OR NO CLOUDS BELOW 12,000 FEET WITH NO
      SIGNIFICANT WEATHER AND/OR OBSTRUCTIONS TO VISIBILITY.
      SKY/WX - SKY CONDITION AND SIGNIFICANT WEATHER.
      TMP - AIR TEMPERATURE.     DP    - DEWPOINT TEMPERATURE.
      RH  - RELATIVE HUMIDITY.   PRES  - PRESSURE.
      HI  - HEAT INDEX.          WCI   - WIND CHILL INDEX.

*  THESE STATIONS ARE NOT NWS OR FAA STATIONS AND ARE NOT UNDER
   NWS QUALITY CONTROL.

LAZ038-040-048-061>063-065>067-069-291800-
SOUTHEAST LOUISIANA

CITY           SKY/WX    TMP DP  RH WIND       PRES   REMARKS
N.O. AUDUBON     N/A     79  73  83 MISG        N/A
N.O. INTL ARPT CLOUDY    79  71  76 E8        29.93F
N.O. LAKEFRONT CLOUDY    77  72  84 NE8       29.94S
N.O. DOWNTOWN* CLOUDY    77  70  78 NE6       29.94F
SLIDELL        CLOUDY    78  71  79 NE9       29.93F
BATON ROUGE    MOSUNNY   83  72  69 NE10      29.93F
BOOTHVILLE     MOSUNNY   82  75  79 NE7       29.92S
BELLE CHASSE   CLOUDY    78  71  79 NE9       29.93S
BOGALUSA*      CLOUDY    79  71  75 NE7       29.96F
GALLIANO*      NOT AVBL
NEW ROADS*     CLOUDY    78  73  85 NE10      29.95S
GONZALES*      CLOUDY    80  76  87 E3        29.93F
HAMMOND*       CLOUDY    79  70  73 NE3       29.96S
HOUMA*         MOSUNNY  N/A N/A N/A NE6       29.92F
PORT FOURCHON* SUNNY     81  75  83 NE8       29.94F

$$

MSZ070-080>082-291800-
SOUTHERN MISSISSIPPI

CITY           SKY/WX    TMP DP  RH WIND       PRES   REMARKS
MCCOMB           N/A     78  70  76 MISG      29.97S
GULFPORT       PTSUNNY   80  72  76 N8        29.92S
BILOXI         CLOUDY    78  73  82 NE8       29.92F
PASCAGOULA     CLOUDY    80  72  76 N8        29.91F
STENNIS ARPT*  CLOUDY    81  70  69 N8        29.93F

$$

COASTAL OBSERVATIONS
LAKE AND NEARSHORE STATIONS

STATION/POSITION TIME  TEMP    WIND        PRES    WAVE
                       AIR SEA DIR/SP/G            HT/PER
                 (UTC) (F)     (DEG/KT/KT) (MB)    (FT/S)
PASCAGOULA       1700   81     360/  9/ 12 1012.3
WAVELAND YACHT   1700   77      20/  7/  8 1012.7
GRAND ISLE       1700   80 79   40/  7/  8 1013.6
SOUTHWEST PASS   1700   84 86  360/  8/  9 1013.0
NEW CANAL        1700   76 77   50/  8/  9 1014.0
SHELL BEACH      1700   76 73   40/ 10/ 11 1013.3

OFFSHORE STATIONS

STATION/POSITION TIME  TEMP    WIND        PRES    WAVE
                       AIR SEA DIR/SP/G            HT/PER
                 (UTC) (F)     (DEG/KT/KT) (MB)    (FT/S)
64 S DAUPHIN ISL 1608   79 82   10/  8/  8 1012.6    3/ 6

$$




USA.gov is the U.S. government's official web portal to all federal, state and local government web resources and services.